User: anonymous   Login
Location: Mentone
(34.5413°N, 85.5351°W)
Time: 00:27:51
(UTC-05:00)
Language:

Uosat F - Orbit

View from above orbital plane
View from above orbital plane
View from above satellite
View from above satellite

Ground track
Ground track

The orbit data is extracted from the following two-line orbital elements,

1 21575U 91050B   17230.51241056  .00000019  00000-0  20467-4 0  9995
2 21575  98.7558 248.4000 0008388 111.7534 248.4547 14.40807606370258
Epoch (UTC): 18 August 2017 12:17:52
Eccentricity: 0.0008388
inclination: 98.7558°
perigee height: 750 km
apogee height: 762 km
right ascension of ascending node: 248.4000°
argument of perigee: 111.7534°
revolutions per day: 14.40807606
mean anomaly at epoch: 248.4547°
orbit number at epoch: 37025

The dashed part of the orbit path shows where the satellite is in the earth's shadow,  

DLR